Location: Góry Miechowskie
(50.3599°N, 20.1803°E)
Time: 22:44:58
(UTC+00:00)

S-56A Canister/Altair - Pass Details

Date: 16 September 2024
Orbit: 636 x 2487 km, 38.9° (Epoch: 09 October)

Event Time Altitude Azimuth Distance (km) Brightness Sun altitude
Rises 18:57:43 0° 249° (WSW) 3,468 11.5 -20.2°
Reaches altitude 10° 19:00:07 10° 240° (WSW) 2,713 10.7 -20.5°
Maximum altitude 19:06:02 36° 176° (S) 1,867 9.1 -21.3°
Enters shadow 19:08:16 31° 146° (SSE) 2,179 9.3 -21.6°
Drops below altitude 10° 19:14:30 10° 115° (ESE) 3,908 - -22.4°
Sets 19:18:40 0° 108° (ESE) 5,213 - -23.0°
